TimeCDT,TemperatureF,Dew PointF,Humidity,Sea Level PressureIn,VisibilityMPH,Wind Direction,Wind SpeedMPH,Gust SpeedMPH,PrecipitationIn,Events,Conditions,WindDirDegrees,DateUTC
12:53 AM,44.1,39.9,85,30.28,10.0,Calm,Calm,-,N/A,,Clear,0,2013-03-29 05:53:00
1:53 AM,48.0,41.0,77,30.29,10.0,Calm,Calm,-,N/A,,Clear,0,2013-03-29 06:53:00
2:53 AM,45.0,39.0,80,30.29,10.0,South,3.5,-,N/A,,Clear,180,2013-03-29 07:53:00
3:53 AM,51.1,41.0,68,30.28,10.0,SSW,3.5,-,N/A,,Clear,200,2013-03-29 08:53:00
4:53 AM,45.0,39.9,82,30.27,10.0,SE,4.6,-,N/A,,Clear,130,2013-03-29 09:53:00
5:53 AM,44.1,39.9,85,30.28,10.0,Calm,Calm,-,N/A,,Clear,0,2013-03-29 10:53:00
6:53 AM,46.0,43.0,89,30.30,10.0,Calm,Calm,-,N/A,,Partly Cloudy,0,2013-03-29 11:53:00
7:53 AM,50.0,46.0,86,30.31,10.0,SE,3.5,-,N/A,,Partly Cloudy,140,2013-03-29 12:53:00
8:53 AM,55.9,48.0,75,30.30,10.0,South,6.9,-,N/A,,Partly Cloudy,170,2013-03-29 13:53:00
9:53 AM,62.1,48.0,60,30.30,10.0,South,6.9,-,N/A,,Clear,190,2013-03-29 14:53:00
10:53 AM,68.0,42.1,39,30.30,10.0,South,10.4,-,N/A,,Clear,190,2013-03-29 15:53:00
11:53 AM,72.0,39.9,31,30.29,10.0,SW,9.2,26.5,N/A,,Mostly Cloudy,220,2013-03-29 16:53:00
12:53 PM,72.0,37.9,29,30.26,10.0,SSW,11.5,19.6,N/A,,Overcast,200,2013-03-29 17:53:00
1:53 PM,75.0,36.0,24,30.23,10.0,SSW,10.4,17.3,N/A,,Mostly Cloudy,200,2013-03-29 18:53:00
2:53 PM,73.9,39.9,29,30.21,10.0,Variable,5.8,-,N/A,,Mostly Cloudy,0,2013-03-29 19:53:00
3:53 PM,75.9,42.1,30,30.18,10.0,WSW,4.6,-,N/A,,Partly Cloudy,240,2013-03-29 20:53:00
4:53 PM,75.0,44.1,33,30.18,10.0,SW,5.8,-,N/A,,Overcast,220,2013-03-29 21:53:00
5:53 PM,73.9,44.1,34,30.17,10.0,South,6.9,-,N/A,,Overcast,180,2013-03-29 22:53:00
6:53 PM,72.0,45.0,38,30.17,10.0,South,8.1,-,N/A,,Clear,190,2013-03-29 23:53:00
7:53 PM,64.9,46.0,50,30.17,10.0,South,5.8,-,N/A,,Clear,170,2013-03-30 00:53:00
8:53 PM,62.1,45.0,53,30.17,10.0,South,6.9,-,N/A,,Clear,180,2013-03-30 01:53:00
9:53 PM,62.1,45.0,53,30.18,10.0,South,5.8,-,N/A,,Clear,180,2013-03-30 02:53:00
10:53 PM,60.1,44.1,55,30.18,10.0,Calm,Calm,-,N/A,,Clear,0,2013-03-30 03:53:00
11:53 PM,52.0,45.0,77,30.19,10.0,SSW,3.5,-,N/A,,Clear,200,2013-03-30 04:53:00